• în România
  • Lista ţărilor
  • Pe 7 zile
  • Temperatura apei
  • Hartă satelitară
  • Meteo pe hartă
  • Widget-uri
  • user-avatar
    Intrare

    Meteo pe oră la Osiek

    Astăzi, 22 Septembrie, Sâmbătă

    Timp Temperatura Precipitaţii Vânt Presiune Umiditate
    00:00 +21°C° 0 mm 2 m/s 753 mmHg 61%
    01:00 +21°C° 0 mm 1 m/s 753 mmHg 64%
    02:00 +20°C° 0.1 mm 2 m/s 753 mmHg 68%
    03:00 +20°C° 0.1 mm 2 m/s 753 mmHg 71%
    04:00 +19°C° 0.1 mm 2 m/s 754 mmHg 74%
    05:00 +20°C° 0.1 mm 2 m/s 754 mmHg 73%
    06:00 +20°C° 0.1 mm 3 m/s 754 mmHg 72%
    07:00 +21°C° 0.1 mm 3 m/s 755 mmHg 70%
    08:00 +22°C° 0 mm 4 m/s 756 mmHg 62%
    09:00 +23°C° 0 mm 6 m/s 756 mmHg 54%
    10:00 +24°C° 0 mm 7 m/s 757 mmHg 45%
    11:00 +23°C° 0 mm 7 m/s 757 mmHg 43%
    12:00 +22°C° 0 mm 7 m/s 758 mmHg 41%
    13:00 +21°C° 0 mm 7 m/s 758 mmHg 38%
    14:00 +20°C° 0 mm 7 m/s 759 mmHg 41%
    15:00 +19°C° 0 mm 6 m/s 759 mmHg 44%
    16:00 +16°C° 0 mm 5 m/s 759 mmHg 47%
    17:00 +15°C° 0 mm 4 m/s 760 mmHg 49%
    18:00 +14°C° 0 mm 3 m/s 760 mmHg 51%
    19:00 +15°C° 0 mm 2 m/s 760 mmHg 53%
    20:00 +14°C° 0 mm 1 m/s 760 mmHg 55%
    21:00 +13°C° 0 mm 1 m/s 760 mmHg 56%
    22:00 +13°C° 0 mm 1 m/s 760 mmHg 57%
    23:00 +12°C° 0 mm 1 m/s 760 mmHg 58%

    Mâine, 23 Septembrie, Duminică

    Timp Temperatura Precipitaţii Vânt Presiune Umiditate
    00:00 +11°C° 0 mm 0 m/s 760 mmHg 59%
    01:00 +11°C° 0 mm 0 m/s 760 mmHg 60%
    02:00 +11°C° 0 mm 0 m/s 760 mmHg 60%
    03:00 +10°C° 0 mm 0 m/s 759 mmHg 61%
    04:00 +10°C° 0 mm 0 m/s 759 mmHg 61%
    05:00 +11°C° 0 mm 0 m/s 759 mmHg 59%
    06:00 +13°C° 0 mm 1 m/s 759 mmHg 56%
    07:00 +14°C° 0 mm 1 m/s 759 mmHg 53%
    08:00 +16°C° 0 mm 1 m/s 759 mmHg 48%
    09:00 +19°C° 0 mm 2 m/s 759 mmHg 43%
    10:00 +21°C° 0 mm 3 m/s 759 mmHg 38%
    11:00 +24°C° 0 mm 2 m/s 758 mmHg 37%
    12:00 +26°C° 0 mm 2 m/s 757 mmHg 36%
    13:00 +27°C° 0 mm 2 m/s 757 mmHg 35%
    14:00 +28°C° 0 mm 2 m/s 756 mmHg 36%
    15:00 +28°C° 0 mm 2 m/s 756 mmHg 37%
    16:00 +29°C° 0 mm 1 m/s 755 mmHg 38%
    17:00 +27°C° 0 mm 1 m/s 755 mmHg 43%
    18:00 +25°C° 0 mm 2 m/s 755 mmHg 48%
    19:00 +23°C° 0 mm 2 m/s 754 mmHg 53%
    20:00 +21°C° 0 mm 2 m/s 754 mmHg 55%
    21:00 +21°C° 0 mm 3 m/s 753 mmHg 57%
    22:00 +20°C° 0 mm 3 m/s 753 mmHg 59%
    23:00 +20°C° 0 mm 3 m/s 752 mmHg 61%

    Poimâine, 24 Septembrie, Luni

    Timp Temperatura Precipitaţii Vânt Presiune Umiditate
    00:00 +20°C° 0 mm 3 m/s 751 mmHg 63%
    01:00 +19°C° 0 mm 3 m/s 751 mmHg 65%
    02:00 +19°C° 0 mm 3 m/s 750 mmHg 68%
    03:00 +19°C° 0 mm 3 m/s 750 mmHg 71%
    04:00 +19°C° 0 mm 3 m/s 750 mmHg 74%
    05:00 +20°C° 0.6 mm 5 m/s 751 mmHg 73%
    06:00 +20°C° 0.6 mm 6 m/s 752 mmHg 72%
    07:00 +21°C° 0.6 mm 7 m/s 753 mmHg 70%
    08:00 +17°C° 0.2 mm 7 m/s 755 mmHg 69%
    09:00 +15°C° 0.2 mm 6 m/s 757 mmHg 67%
    10:00 +13°C° 0.2 mm 6 m/s 759 mmHg 66%
    11:00 +13°C° 0.1 mm 5 m/s 760 mmHg 66%
    12:00 +13°C° 0.1 mm 4 m/s 761 mmHg 67%
    13:00 +14°C° 0.1 mm 2 m/s 761 mmHg 67%
    14:00 +13°C° 0 mm 3 m/s 761 mmHg 66%
    15:00 +13°C° 0 mm 3 m/s 761 mmHg 66%
    16:00 +13°C° 0 mm 3 m/s 761 mmHg 65%
    17:00 +13°C° 0 mm 3 m/s 762 mmHg 63%
    18:00 +13°C° 0 mm 3 m/s 762 mmHg 61%
    19:00 +13°C° 0 mm 3 m/s 763 mmHg 59%
    20:00 +13°C° 0 mm 3 m/s 763 mmHg 57%
    21:00 +12°C° 0 mm 3 m/s 764 mmHg 54%
    22:00 +12°C° 0 mm 3 m/s 764 mmHg 52%
    23:00 +11°C° 0 mm 3 m/s 764 mmHg 54%

    25 Septembrie, Marţi

    Timp Temperatura Precipitaţii Vânt Presiune Umiditate
    00:00 +10°C° 0 mm 3 m/s 765 mmHg 57%
    01:00 +9°C° 0 mm 3 m/s 765 mmHg 59%
    02:00 +8°C° 0 mm 3 m/s 765 mmHg 62%
    03:00 +8°C° 0 mm 3 m/s 765 mmHg 64%
    04:00 +7°C° 0 mm 3 m/s 765 mmHg 66%
    05:00 +8°C° 0 mm 3 m/s 766 mmHg 64%
    06:00 +9°C° 0 mm 3 m/s 766 mmHg 62%
    07:00 +8°C° 0 mm 4 m/s 766 mmHg 61%
    08:00 +11°C° 0 mm 4 m/s 766 mmHg 52%
    09:00 +13°C° 0 mm 5 m/s 766 mmHg 43%
    10:00 +15°C° 0 mm 5 m/s 767 mmHg 34%
    11:00 +16°C° 0 mm 5 m/s 766 mmHg 31%
    12:00 +17°C° 0 mm 5 m/s 766 mmHg 28%
    13:00 +17°C° 0 mm 5 m/s 766 mmHg 25%
    14:00 +17°C° 0 mm 5 m/s 765 mmHg 25%
    15:00 +18°C° 0 mm 4 m/s 765 mmHg 26%
    16:00 +17°C° 0 mm 4 m/s 765 mmHg 26%
    17:00 +14°C° 0 mm 3 m/s 765 mmHg 31%
    18:00 +12°C° 0 mm 3 m/s 765 mmHg 36%
    19:00 +10°C° 0 mm 2 m/s 765 mmHg 41%
    20:00 +10°C° 0 mm 2 m/s 766 mmHg 44%
    21:00 +10°C° 0 mm 1 m/s 766 mmHg 46%
    22:00 +9°C° 0 mm 1 m/s 766 mmHg 49%
    23:00 +9°C° 0 mm 1 m/s 766 mmHg 51%

    26 Septembrie, Miercuri

    Timp Temperatura Precipitaţii Vânt Presiune Umiditate
    00:00 +8°C° 0 mm 1 m/s 766 mmHg 53%
    01:00 +8°C° 0 mm 1 m/s 765 mmHg 55%
    02:00 +8°C° 0 mm 1 m/s 765 mmHg 57%
    03:00 +6°C° 0 mm 2 m/s 765 mmHg 58%
    04:00 +6°C° 0 mm 2 m/s 765 mmHg 59%
    05:00 +7°C° 0 mm 2 m/s 765 mmHg 57%
    06:00 +7°C° 0 mm 2 m/s 766 mmHg 54%
    07:00 +8°C° 0 mm 3 m/s 766 mmHg 52%
    08:00 +11°C° 0 mm 3 m/s 766 mmHg 45%
    09:00 +13°C° 0 mm 4 m/s 765 mmHg 38%
    10:00 +16°C° 0 mm 5 m/s 765 mmHg 32%
    11:00 +17°C° 0 mm 5 m/s 765 mmHg 32%
    12:00 +19°C° 0 mm 6 m/s 765 mmHg 32%
    13:00 +20°C° 0 mm 6 m/s 764 mmHg 32%
    14:00 +19°C° 0 mm 6 m/s 764 mmHg 33%
    15:00 +19°C° 0 mm 6 m/s 764 mmHg 33%
    16:00 +17°C° 0 mm 6 m/s 764 mmHg 33%
    17:00 +15°C° 0 mm 4 m/s 764 mmHg 38%
    18:00 +13°C° 0 mm 3 m/s 765 mmHg 43%
    19:00 +12°C° 0 mm 2 m/s 765 mmHg 49%
    20:00 +12°C° 0 mm 2 m/s 766 mmHg 51%
    21:00 +10°C° 0 mm 2 m/s 766 mmHg 53%
    22:00 +10°C° 0 mm 1 m/s 766 mmHg 56%
    23:00 +10°C° 0 mm 1 m/s 766 mmHg 57%

    27 Septembrie, Joi

    Timp Temperatura Precipitaţii Vânt Presiune Umiditate
    00:00 +9°C° 0 mm 1 m/s 766 mmHg 59%
    01:00 +8°C° 0 mm 0 m/s 766 mmHg 60%
    02:00 +7°C° 0 mm 0 m/s 766 mmHg 61%
    03:00 +7°C° 0 mm 0 m/s 766 mmHg 62%
    04:00 +7°C° 0 mm 0 m/s 766 mmHg 63%
    05:00 +9°C° 0 mm 1 m/s 766 mmHg 60%
    06:00 +9°C° 0 mm 1 m/s 766 mmHg 57%
    07:00 +10°C° 0 mm 1 m/s 766 mmHg 55%
    08:00 +13°C° 0 mm 1 m/s 766 mmHg 47%
    09:00 +15°C° 0 mm 2 m/s 765 mmHg 39%
    10:00 +18°C° 0 mm 2 m/s 765 mmHg 32%
    11:00 +19°C° 0 mm 2 m/s 764 mmHg 29%
    12:00 +20°C° 0 mm 2 m/s 764 mmHg 26%
    13:00 +21°C° 0 mm 2 m/s 763 mmHg 23%
    14:00 +21°C° 0 mm 2 m/s 762 mmHg 23%
    15:00 +21°C° 0 mm 2 m/s 761 mmHg 23%
    16:00 +21°C° 0 mm 2 m/s 761 mmHg 23%
    17:00 +19°C° 0 mm 2 m/s 761 mmHg 27%
    18:00 +16°C° 0 mm 2 m/s 760 mmHg 31%
    19:00 +14°C° 0 mm 2 m/s 760 mmHg 35%
    20:00 +13°C° 0 mm 2 m/s 760 mmHg 38%
    21:00 +13°C° 0 mm 2 m/s 760 mmHg 40%
    22:00 +12°C° 0 mm 2 m/s 759 mmHg 43%
    23:00 +10°C° 0 mm 2 m/s 759 mmHg 45%
    Arată mai mult